Flag for Norway Weather past 2 weeks in Grimstad, Norway

Now
52 °F

Cool.


Feels Like: 49 °F
Forecast: 45 / 49 °F
Wind: 9 mph from Northwest

Location: Torungen Fyr

Current Time: May 27, 2015 at 8:44:48 AM

Latest Report: May 27, 2015 at 8:00 AM


Visibility: N/A

Pressure: 29.91 "Hg

Humidity: 53%

Dew point: 35 °F

Location of GrimstadLocation

Historic Weather in Grimstad — Graph

°F

Grimstad temperature yesterday

Maximum temperature yesterday: 62 °F (at 5:00 PM)
Minimum temperature yesterday: 46 °F (at 5:00 AM)
Average temperature yesterday: 51 °F

Past Weeks' High & Low Weather Summary

 TemperatureHumidityPressure
High62 °F (May 23, 4:00 PM)99% (May 24, 8:00 PM)30.10 "Hg (May 24, 8:00 PM)
Low42 °F (May 18, 6:00 AM)32% (May 23, 6:00 PM)29.32 "Hg (May 19, 6:00 AM)
Average49 °F75%29.82 "Hg
* Reported May 12 9:00 AM — May 27 7:00 AM, Grimstad, Weather by CustomWeather, © 2015

Note: Actual official high and low records may vary slightly from our data, if they occured in-between our weather recording intervals... More about our weather records

Advertising

Grimstad weather history for previous 24 hours

 ConditionsComfort  
Time TempWeatherWind HumidityBarometerVisibility
7:00 AM
Wed, May 27
50 °FCool.7 mph57%29.91 "HgN/A
6:00 AM48 °FCool.7 mph64%29.90 "HgN/A
5:00 AM48 °FCool.6 mph65%29.90 "HgN/A
4:00 AM48 °FCool.6 mph67%29.90 "HgN/A
3:00 AM48 °FCool.3 mph67%29.89 "HgN/A
2:00 AM49 °FCool.6 mph65%29.89 "HgN/A
1:00 AM50 °FCool.7 mph63%29.88 "HgN/A
12:00 AM51 °FCool.5 mph60%29.88 "HgN/A
10:00 PM
Tue, May 26
53 °FCool.8 mph51%29.86 "HgN/A
9:00 PM56 °FRefreshingly cool.9 mph46%29.84 "HgN/A
5:00 PM62 °FRefreshingly cool.10 mph36%29.79 "HgN/A
4:00 PM54 °FCool.9 mph75%29.79 "HgN/A
3:00 PM54 °FCool.8 mph76%29.80 "HgN/A
2:00 PM53 °FCool.10 mph69%29.81 "HgN/A
1:00 PM53 °FCool.8 mph65%29.82 "HgN/A
12:00 PM53 °FCool.6 mph74%29.83 "HgN/A
11:00 AM54 °FCool.2 mph71%29.82 "HgN/A
10:00 AM54 °FCool.N/A56%29.82 "HgN/A
9:00 AM53 °FCool.N/A58%29.81 "HgN/A
8:00 AM50 °FCool.N/A64%29.80 "HgN/A
Weather by CustomWeather, © 2015

See weather overviewHow to use our weather pages